Regional Weather Roundup
Issued by NWS Wilmington, NC

Home | Current Version | Previous Version | Text Only | Print | Product List | Glossary On
Versions: 1 2 3 4 5 6 7 8 9 10 11 12 13 14 15 16 17 18 19 20 21 22 23 24 25 26 27 28 29 30 31 32 33 34 35 36 37 38 39 40 41 42 43 44 45 46 47 48 49 50
000
ASUS42 KILM 301210
RWRILM
RWRILM
REGIONAL HOURLY WEATHER ROUNDUP
NATIONAL WEATHER SERVICE WILMINGTON NC
800 AM EDT TUE SEP 30 2014

NOTE: "FAIR" INDICATES FEW OR NO CLOUDS BELOW 12,000 FEET WITH NO
SIGNIFICANT WEATHER AND/OR OBSTRUCTIONS TO VISIBILITY.

...............WFO WILMINGTON COUNTY WARNING AREA...............

......COASTAL NC AND SC COUNTIES......

CITY           SKY/WX    TMP DP  RH WIND       PRES   REMARKS
WILMINGTON     SUNNY     64  62  93 N7        29.90R FOG
SOUTHPORT      CLOUDY    62  60  95 N9        29.90R FOG
N MYRTLE BEACH PTCLDY    64  62  93 N8        29.89R FOG
MYRTLE BEACH   PTCLDY    64  61  88 N9        29.90R

......INLAND NC AND SC COUNTIES.......

CITY           SKY/WX    TMP DP  RH WIND       PRES   REMARKS
LUMBERTON      FOG       60  60 100 NE5       29.92R VSB<1/4
ELIZABETHTOWN  CLEAR     61  61 100 CALM      29.92R FOG
WHITEVILLE     CLEAR     61  60  95 N3        29.91R FOG
FLORENCE       MOCLDY    63  61  93 N6        29.93R FOG
DARLINGTON     CLOUDY    63  57  82 CALM      29.94R VSB<1/4

....................REST OF NORTH CAROLINA......................

.........EASTERN NC.........

CITY           SKY/WX    TMP DP  RH WIND       PRES   REMARKS
CAPE HATTERAS  CLOUDY    64  63  96 NE3       29.89S
JACKSONVILLE   SUNNY     63  59  88 CALM      29.91S
MOREHEAD CITY  CLOUDY    67  66  97 N9        29.90R
KENANSVILLE    SUNNY     61  61 100 CALM      29.93S FOG
NEW BERN       SUNNY     65  61  87 N5        29.93R
ELIZABETH CITY SUNNY     65  63  93 N6        29.92R

.........CENTRAL NC.........

CITY           SKY/WX    TMP DP  RH WIND       PRES   REMARKS
RALEIGH DURHAM FOG       63  61  93 CALM      29.95R VSB 1
ROCKY MOUNT    FOG       61  60  97 CALM      29.93R VSB<1/4
ROANOKE RAPIDS NOT AVBL
FAYETTEVILLE   FOG       60  59  96 CALM      29.92R VSB 1/4
HOFFMAN        FOG       60  60  99 MISG      29.95F VSB 3/16

.........WESTERN NC.........

CITY           SKY/WX    TMP DP  RH WIND       PRES   REMARKS
CHARLOTTE      FOG       60  59  96 NW3       29.96R VSB 1/2
GREENSBORO     FOG       61  61 100 W3        29.94R VSB 1/8
HICKORY        NOT AVBL
BOONE          NOT AVBL
ASHEVILLE      NOT AVBL

.....................REST OF SOUTH CAROLINA.....................

.........EASTERN SC.........

CITY           SKY/WX    TMP DP  RH WIND       PRES   REMARKS
CHARLESTON     MOCLDY    66  62  87 N9        29.89R
BEAUFORT MCAS  MOCLDY    66  63  90 N5        29.91R
HILTON HEAD    NOT AVBL

.........CENTRAL SC.........

CITY           SKY/WX    TMP DP  RH WIND       PRES   REMARKS
COLUMBIA       PTCLDY    65  61  87 CALM      29.93R
ORANGEBURG     CLEAR     63  59  87 N3        29.94R
SUMTER SHAW    CLEAR     61  58  88 NE2       29.92R

.........WESTERN SC.........

CITY           SKY/WX    TMP DP  RH WIND       PRES   REMARKS
GREENVILLE     NOT AVBL
ROCK HILL      FOG       57  57 100 CALM      29.96R VSB 1/4
ANDERSON       FOG       61  61 100 CALM      29.97R VSB 1/4
CLEMSON        NOT AVBL
GREENWOOD      FOG       63  61  93 N3        29.97R VSB<1/4


...................COASTAL AND OFFSHORE REPORTS..................

................LOCAL PIERS AND NC RESERVE................


STATION/POSITION TIME  SKY/WX   TEMP    WIND        PRES    VSBY
                                AIR SEA DIR/SP/G
                 (UTC)          (F)     (DEG/KT/KT) (MB)    (MI)
JOHNY MRCER PIER 1200            64 76   10/ 10/ 12 1011.7R
NC RESRV MASNBRO 1100            64     360/  2     1011.0S
OCEAN CREST PIER 1200            64 74  340/  9/ 14 1011.0R
SPRINGMAID  PIER 1200            64 74  350/  7/ 11 1012.2R


................COASTAL AND OFFSHORE BUOYS................


STATION/POSITION TIME  SKY/WX   TEMP    WIND        PRES    VSBY
                                AIR SEA DIR/SP/G
                 (UTC)          (F)     (DEG/KT/KT) (MB)    (MI)
DIMNDSHOAL 41025 1200            71     360/ 16/ 17 1011.7R
WVE H/P(F/S)=  4/ 5 WND WVE H/P(F/S)=  3/ 5 SWL H/P/D(F/S/D)=  2/ 60/ 8

CAPE LOOKOUT     1100            69      20/  9/ 10 1011.5R
ONSLOW BAY 41036 1200            73 80   40/ 14/ 16 1011.1R
WVE H/P(F/S)=  3/ 5 WND WVE H/P(F/S)=  3/ 5 SWL H/P/D(F/S/D)=  2/ 90/ 7

5 WRITEBCH 41038 1100            65 75   20/ 16/ 17   N/A
MASONBORO  41110 1200               75                N/A
WVE H/P(F/S)=  3/14 WND WVE H/P(F/S)=  3/ 4

WILM HARBR 41108 1200               76                N/A
WVE H/P(F/S)=  3/ 4 WND WVE H/P(F/S)=  3/ 4

27WRITEBCH 41037 1100            71 79   50/ 14/ 16 1011.1R
FRYING PAN 41013 NOT AVBL
SUNST NRSH 41024 1100            66      10/ 12/ 14 1011.6R
CAPRS NRSH 41029 1100            66      20/ 12/ 14   N/A
EDISTO     41004 1200            75 81   20/ 17/ 21 1009.7R
WVE H/P(F/S)=  5/ 6 WND WVE H/P(F/S)=  5/ 6 SWL H/P/D(F/S/D)=  2/15



..........OFFSHORE BUOYS BEYOND 100 NM OFFSHORE...........
.....IN A TRIANGLE---HAT TO BERMUDA TO BAHAMAS TO HAT.....


STATION/POSITION TIME  SKY/WX   TEMP    WIND        PRES    VSBY
                                AIR SEA DIR/SP/G
                 (UTC)          (F)     (DEG/KT/KT) (MB)    (MI)
150E HAT   41001 NOT AVBL
W BERMUDA  41048 1143            79 81  290/  6/  8 1011.1R
WVE H/P(F/S)=  3/ 7 WND WVE H/P(F/S)=  2/ 4 SWL H/P/D(F/S/D)=  3/ 70/ 7

ATLANTIC S 41049 1149            82 84  210/ 12/ 16 1013.2R
WVE H/P(F/S)=  4/ 5 WND WVE H/P(F/S)=  3/ 5 SWL H/P/D(F/S/D)=  2/100/13

E BAHAMAS  41046 1150            83 84  220/ 17/ 21 1012.9R
WVE H/P(F/S)=  4/ 8 WND WVE H/P(F/S)=  3/ 4 SWL H/P/D(F/S/D)=  2/ 10/ 8

NE BAHAMAS 41047 1150            81 83  150/  4/  4 1012.5R
WVE H/P(F/S)=  3/ 7 SWL H/P/D(F/S/D)=  3/ 20/ 7

120E CANVRL41010 1200            82 85  240/ 14/ 16 1009.7R
WVE H/P(F/S)=  3/ 6 WND WVE H/P(F/S)=  3/ 6 SWL H/P/D(F/S/D)=  2/ 60/ 9


END



USA.gov is the U.S. government's official web portal to all federal, state and local government web resources and services.